Alexandria, MN

12:21 AM CST on December 10, 2019 (GMT -0600)
Chandler

Weather History for KAXN - October, 2019

Change the Weather History Date:

Wednesday, October 16, 2019

  Actual Average Record
Temperature  
Mean Temperature 38 °F -  
Max Temperature 43 °F 53 °F 81 °F (1991)
Min Temperature 35 °F 33 °F 19 °F (1952)
Degree Days  
Heating Degree Days 26    
Moisture  
Dew Point 34 °F    
Average Humidity 84    
Maximum Humidity 92    
Minimum Humidity 73    
Precipitation  
Precipitation 0.00 in - - ()
Sea Level Pressure  
Sea Level Pressure 30.14 in    
Wind  
Wind Speed 7 mph ()    
Max Wind Speed 14 mph    
Max Gust Speed 20 mph    
Visibility 10.0 miles    
Events      
Averages and records for this station are not official NWS values.
T = Trace of Precipitation, MM = Missing Value Source: Averaged Metar Reports

Daily Weather History Graph

Daily Weather History Graph

Search for Another Location

Airport or City:

Astronomy

Oct. 16, 2019 Rise Set
Actual Time 7:39 AM CDT 6:34 PM CDT
Civil Twilight 7:09 AM CDT 7:04 PM CDT
Nautical Twilight 6:34 AM CDT 7:38 PM CDT
Astronomical Twilight 6:00 AM CDT 8:13 PM CDT
Moon 8:20 PM CDT (10/16) 10:17 AM CDT (10/16)
Length of Visible Light 11h 54m
Length of Day
10h 54m
Waning Gibbous, 92% of the Moon is Illuminated
Oct 16
Waning Gibbous
Oct 21
Last Quarter
Oct 27
New
Nov 4
First Quarter
Nov 12
Full

Hourly Weather History & Observations

Time (CDT) Temp. Windchill Dew Point Humidity Pressure Visibility Wind Dir Wind Speed Gust Speed Precip Events Conditions
12:53 AM 37.9 °F 30.9 °F 33.1 °F 83% 30.17 in 10.0 mi NNW 10.4 mph 19.6 mph N/A   Overcast
1:53 AM 37.9 °F 31.5 °F 33.1 °F 83% 30.17 in 10.0 mi NW 9.2 mph - N/A   Overcast
2:19 AM 37.0 °F 31.6 °F 34.0 °F 89% 30.13 in 10.0 mi NW 6.9 mph - N/A   Overcast
2:53 AM 37.0 °F 28.5 °F 33.1 °F 86% 30.19 in 10.0 mi NW 13.8 mph 19.6 mph N/A   Overcast
3:05 AM 37.0 °F 28.9 °F 33.1 °F 86% 30.14 in 10.0 mi NW 12.7 mph - N/A   Overcast
3:53 AM 37.0 °F 29.3 °F 33.1 °F 86% 30.18 in 10.0 mi NW 11.5 mph - N/A   Overcast
4:27 AM 37.0 °F 29.8 °F 33.1 °F 86% 30.14 in 10.0 mi NW 10.4 mph - N/A   Overcast
4:53 AM 37.0 °F 30.4 °F 33.1 °F 86% 30.18 in 10.0 mi WNW 9.2 mph - N/A   Overcast
5:53 AM 36.0 °F 28.5 °F 33.1 °F 89% 30.18 in 10.0 mi NNW 10.4 mph - N/A   Overcast
6:53 AM 36.0 °F 28.5 °F 33.1 °F 89% 30.18 in 10.0 mi WNW 10.4 mph - N/A   Overcast
7:53 AM 35.1 °F 28.6 °F 32.0 °F 89% 30.18 in 10.0 mi NW 8.1 mph - N/A   Overcast
8:53 AM 36.0 °F 29.6 °F 33.1 °F 89% 30.18 in 10.0 mi NW 8.1 mph - N/A   Overcast
9:53 AM 37.0 °F 33.3 °F 34.0 °F 89% 30.20 in 10.0 mi NW 4.6 mph - N/A   Overcast
10:04 AM 37.0 °F 31.6 °F 34.0 °F 89% 30.15 in 10.0 mi WNW 6.9 mph - N/A   Overcast
10:38 AM 37.9 °F 32.7 °F 34.0 °F 86% 30.16 in 10.0 mi NNW 6.9 mph - N/A   Overcast
10:53 AM 37.9 °F 34.4 °F 34.0 °F 86% 30.20 in 10.0 mi NNW 4.6 mph - N/A   Overcast
11:53 AM 39.0 °F 34.8 °F 34.0 °F 82% 30.18 in 10.0 mi NW 5.8 mph - N/A   Overcast
12:42 PM 41.0 °F 38.0 °F 35.1 °F 79% 30.14 in 10.0 mi Variable 4.6 mph - N/A   Overcast
12:53 PM 39.9 °F 37.8 °F 35.1 °F 83% 30.18 in 10.0 mi Variable 3.5 mph - N/A   Overcast
1:53 PM 41.0 °F 39.0 °F 35.1 °F 79% 30.16 in 10.0 mi WNW 3.5 mph - N/A   Overcast
2:53 PM 41.0 °F 39.0 °F 35.1 °F 79% 30.14 in 10.0 mi WSW 3.5 mph - N/A   Overcast
3:53 PM 42.1 °F - 34.0 °F 73% 30.12 in 10.0 mi Calm Calm - N/A   Overcast
4:53 PM 42.1 °F - 34.0 °F 73% 30.10 in 10.0 mi Calm Calm - N/A   Overcast
5:53 PM 42.1 °F 39.2 °F 35.1 °F 76% 30.09 in 10.0 mi SSW 4.6 mph - N/A   Overcast
6:53 PM 41.0 °F 39.0 °F 35.1 °F 79% 30.08 in 10.0 mi SW 3.5 mph - N/A   Overcast
7:53 PM 39.9 °F 35.8 °F 35.1 °F 83% 30.07 in 10.0 mi SSW 5.8 mph - N/A   Overcast
8:53 PM 39.9 °F - 35.1 °F 83% 30.08 in 10.0 mi Calm Calm - N/A   Overcast
9:25 PM 39.9 °F - 35.1 °F 83% 30.04 in 10.0 mi Calm Calm - N/A   Mostly Cloudy
9:53 PM 37.9 °F - 34.0 °F 86% 30.09 in 10.0 mi Calm Calm - N/A   Scattered Clouds
10:53 PM 35.1 °F 32.2 °F 33.1 °F 92% 30.09 in 10.0 mi SE 3.5 mph - N/A   Scattered Clouds
11:53 PM 36.0 °F 33.3 °F 33.1 °F 89% 30.08 in 10.0 mi SE 3.5 mph - N/A   Clear